Skip Page Navigation
NASA JPL Caltech
NASA Logo - Jet Propulsion Laboratory + View the NASA Portal
+ Center for Near-Earth Object Studies
JPL Home Earth Solar System Stars & Galaxies Technology
JPL Solar System Dynamics
BODIES ORBITS EPHEMERIDES TOOLS PHYSICAL DATA DISCOVERY FAQ SITE MAP
JPL Small-Body Database Browser
Search: [ help ]  
172051 (2001 XA125)
Classification: Main-belt Asteroid          SPK-ID: 2172051
Ephemeris | Orbit Diagram | Orbital Elements | Mission Design | Physical Parameters | Discovery Circumstances | Close-Approach Data ]

[ show orbit diagram ]
Orbital Elements at Epoch 2459000.5 (2020-May-31.0) TDB
Reference: JPL 10 (heliocentric ecliptic J2000)
 Element Value Uncertainty (1-sigma)   Units 
e .1521384034761564 4.701e-08  
a 2.998598873675138 2.5626e-08 au
q 2.542396828368802 1.3802e-07 au
i 2.710108883354267 5.5391e-06 deg
node 130.6973488566123 0.00012792 deg
peri 340.3843753376468 0.0001298 deg
M 170.6564524871752 2.1205e-05 deg
tp 2458101.424424021216
(2017-Dec-13.92442402)
0.00010906 TDB
period 1896.601052202734
5.19
2.4313e-05
6.657e-08
d
yr
n .18981324490034 2.4332e-09 deg/d
Q 3.454800918981474 2.9525e-08 au
  Orbit Determination Parameters
   # obs. used (total)      316  
   data-arc span      8652 days (23.69 yr)  
   first obs. used      1995-09-19  
   last obs. used      2019-05-28  
   planetary ephem.      DE431  
   SB-pert. ephem.      SB431-N16  
   condition code      0  
   norm. resid. RMS      .62674  
   source      ORB  
   producer      Otto Matic  
   solution date      2020-Feb-24 16:42:51  

Additional Information
 Earth MOID = 1.55923 au 
 Jupiter MOID = 1.65975 au 
 T_jup = 3.234 
[ show covariance matrix ]

Ephemeris | Orbit Diagram | Orbital Elements | Mission Design | Physical Parameters | Discovery Circumstances | Close-Approach Data ]

Physical Parameter Table
Parameter Symbol Value Units Sigma Reference Notes
absolute magnitude H 16.1   n/a MPO436855  

172051 (2001 XA125)          Discovered 2001-Dec-14 by LINEAR at Socorro
Reference: 20071224/Numbers.arcLast Updated: 2007-12-22

[ show close-approach data ]
Alternate Designations
 2001 XA125 = 1995 SG61 
Ephemeris | Orbit Diagram | Orbital Elements | Mission Design | Physical Parameters | Discovery Circumstances | Close-Approach Data ]
ABOUT SSD CREDITS/AWARDS PRIVACY/COPYRIGHT GLOSSARY LINKS
FirstGov 2020-Aug-06 17:43 UT
(server date/time)  
NASA Home Page
Site Manager:   Ryan S. Park
Webmaster  Alan B. Chamberlin